User: anonymous   Login
Location: Bridgewater Hill Observatory
(43.5992°N, 72.6989°W)
Time: 07:47:09
(UTC-04:00)
Language:

Cosmos 1452 Rocket - Orbit

View from above orbital plane
View from above orbital plane
View from above satellite
View from above satellite

Ground track
Ground track

The orbit data is extracted from the following two-line orbital elements,

1 13992U 83031B   16148.08462602  .00000062  00000-0  30319-4 0  9995
2 13992  74.0534 355.2646 0004207  70.1263  55.8871 14.36035358733388
Epoch (UTC): 27 May 2016 02:01:51
Eccentricity: 0.0004207
inclination: 74.0534°
perigee height: 768 km
apogee height: 774 km
right ascension of ascending node: 355.2646°
argument of perigee: 70.1263°
revolutions per day: 14.36035358
mean anomaly at epoch: 55.8871°
orbit number at epoch: 73338

The dashed part of the orbit path shows where the satellite is in the earth's shadow,  

DLR